DW1389 Weather Reports


Display with metric or nautical units.
time (UTC)temp
F
wind
direction
speed
MPH
gust
MPH
rain 1hr
in
rain 24hr
in
rain mn
in
humidity
%
barometer
mb
20260504234242 81 141 3.0 13.0 0.00 0.00 0.00 61 1008.1
20260504233741 81 321 3.0 8.0 0.00 0.00 0.00 61 1008.3
20260504233238 81 184 3.0 8.0 0.00 0.00 0.00 61 1008.3
20260504232738 81 193 4.0 11.0 0.00 0.00 0.00 61 1008.4
20260504232238 81 207 4.0 11.0 0.00 0.00 0.00 61 1008.3
20260504231738 81 232 4.0 10.0 0.00 0.00 0.00 61 1008.3
20260504231524 81 222 4.0 9.0 0.00 0.00 0.00 61 1008.5
20260504231024 81 257 4.0 8.0 0.00 0.00 0.00 61 1008.5
20260504230240 81 259 4.0 9.0 0.00 0.00 0.00 61 1008.5
20260504225740 82 341 4.0 9.0 0.00 0.00 0.00 61 1008.5
20260504225240 82 305 3.0 9.0 0.00 0.00 0.00 61 1008.7
20260504224739 82 212 3.0 11.0 0.00 0.00 0.00 60 1008.7
20260504224240 82 323 4.0 11.0 0.00 0.00 0.00 60 1008.8
20260504223740 82 216 4.0 14.0 0.00 0.00 0.00 60 1008.9
20260504223529 82 240 4.0 14.0 0.00 0.00 0.00 61 1008.9
20260504223100 82 205 4.0 11.0 0.00 0.00 0.00 60 1008.8
20260504222759 82 75 5.0 14.0 0.00 0.00 0.00 61 1008.7
20260504221734 83 290 4.0 9.0 0.00 0.00 0.00 59 1008.9
20260504221234 83 180 4.0 8.0 0.00 0.00 0.00 59 1008.8
20260504220735 82 234 3.0 9.0 0.00 0.00 0.00 60 1008.9
20260504220233 82 222 3.0 9.0 0.00 0.00 0.00 61 1008.9
20260504215735 82 213 3.0 8.0 0.00 0.00 0.00 60 1009.0
20260504215230 82 288 3.0 8.0 0.00 0.00 0.00 60 1009.0
20260504214729 83 236 3.0 9.0 0.00 0.00 0.00 60 1008.9
20260504214229 83 336 4.0 9.0 0.00 0.00 0.00 60 1008.9
20260504213730 82 197 4.0 9.0 0.00 0.00 0.00 60 1009.0
20260504213228 82 90 3.0 9.0 0.00 0.00 0.00 60 1009.3
20260504212729 82 200 3.0 12.0 0.00 0.00 0.00 61 1009.3
20260504212229 82 270 4.0 12.0 0.00 0.00 0.00 61 1009.6
20260504211729 82 224 3.0 12.0 0.00 0.00 0.00 60 1009.5
20260504211512 82 123 3.0 9.0 0.00 0.00 0.00 61 1009.7
20260504210729 81 258 3.0 9.0 0.00 0.00 0.00 60 1009.7
20260504210229 81 51 4.0 9.0 0.00 0.00 0.00 61 1009.8
20260504205730 81 127 4.0 9.0 0.00 0.00 0.00 61 1009.9
20260504205230 81 225 4.0 9.0 0.00 0.00 0.00 61 1010.1
20260504204728 81 81 4.0 9.0 0.00 0.00 0.00 61 1010.2
20260504204230 82 236 4.0 11.0 0.00 0.00 0.00 60 1010.1
20260504203730 82 220 4.0 11.0 0.00 0.00 0.00 60 1010.1
20260504203229 82 283 3.0 7.0 0.00 0.00 0.00 60 1010.3
20260504202728 81 173 3.0 8.0 0.00 0.00 0.00 60 1010.5
20260504202232 81 277 4.0 10.0 0.00 0.00 0.00 61 1010.5
20260504201731 82 24 4.0 11.0 0.00 0.00 0.00 60 1010.7
20260504201508 82 222 4.0 11.0 0.00 0.00 0.00 60 1010.7
20260504200731 81 280 3.0 10.0 0.00 0.00 0.00 60 1010.9
20260504200230 81 0 3.0 10.0 0.00 0.00 0.00 60 1010.8
20260504195729 81 226 3.0 10.0 0.00 0.00 0.00 60 1011.0
20260504195229 81 218 3.0 9.0 0.00 0.00 0.00 60 1011.2
20260504194729 81 190 4.0 10.0 0.00 0.00 0.00 61 1011.3
20260504194231 81 288 5.0 11.0 0.00 0.00 0.00 60 1011.3
20260504193730 81 232 5.0 11.0 0.00 0.00 0.00 60 1011.3
20260504193229 81 235 4.0 9.0 0.00 0.00 0.00 59 1011.4
20260504193010 81 180 4.0 9.0 0.00 0.00 0.00 60 1011.6
20260504192230 80 290 3.0 8.0 0.00 0.00 0.00 61 1011.6
20260504191730 80 134 4.0 11.0 0.00 0.00 0.00 61 1011.6
20260504191229 80 220 5.0 12.0 0.00 0.00 0.00 62 1011.8
20260504190730 79 229 4.0 12.0 0.00 0.00 0.00 63 1011.9
20260504190231 79 207 3.0 11.0 0.00 0.00 0.00 64 1011.9
20260504185730 78 241 4.0 11.0 0.00 0.00 0.00 65 1011.8
20260504185307 78 353 3.0 12.0 0.00 0.00 0.00 65 1011.9
20260504185256 79 310 4.0 10.0 0.00 0.00 0.00 63 1011.9
20260504184229 78 271 4.0 12.0 0.00 0.00 0.00 64 1011.9
20260504183729 78 206 4.0 8.0 0.00 0.00 0.00 65 1012.0
20260504183229 78 243 3.0 9.0 0.00 0.00 0.00 66 1012.2
20260504182729 77 232 4.0 13.0 0.00 0.00 0.00 65 1012.3
20260504182230 77 239 4.0 13.0 0.00 0.00 0.00 68 1012.4
20260504181729 77 240 4.0 13.0 0.00 0.00 0.00 65 1012.7
20260504181514 77 231 4.0 10.0 0.00 0.00 0.00 67 1012.5
20260504180729 77 267 4.0 12.0 0.00 0.00 0.00 66 1012.6
20260504180229 76 349 5.0 12.0 0.00 0.00 0.00 66 1012.7
20260504175728 76 256 5.0 12.0 0.00 0.00 0.00 69 1012.7
20260504175228 76 111 4.0 12.0 0.00 0.00 0.00 67 1012.9
20260504174808 75 218 4.0 10.0 0.00 0.00 0.00 68 1013.0
20260504174757 76 259 4.0 11.0 0.00 0.00 0.00 67 1012.9
20260504173729 75 191 4.0 12.0 0.00 0.00 0.00 68 1013.3
20260504173229 74 150 5.0 12.0 0.00 0.00 0.00 70 1013.3
20260504172730 74 322 5.0 12.0 0.00 0.00 0.00 69 1013.3
20260504172228 74 235 6.0 12.0 0.00 0.00 0.00 69 1013.5
20260504171729 74 260 5.0 12.0 0.00 0.00 0.00 69 1013.6
20260504171229 74 230 5.0 12.0 0.00 0.00 0.00 69 1013.7
20260504170728 73 249 5.0 10.0 0.00 0.00 0.00 71 1013.7
20260504170229 73 271 5.0 11.0 0.00 0.00 0.00 71 1013.7
20260504160229 74 291 4.0 10.0 0.00 0.00 0.00 68 1014.0
20260504150730 71 257 4.0 9.0 0.00 0.00 0.00 70 1014.3
20260504150516 70 140 4.0 8.0 0.00 0.00 0.00 72 1014.3
20260504141229 68 242 4.0 21.0 0.00 0.00 0.00 73 1014.4
20260504140729 68 49 3.0 17.0 0.00 0.00 0.00 74 1014.4
20260504140229 67 219 3.0 18.0 0.00 0.00 0.00 75 1014.4
20260504130730 64 224 3.0 4.0 0.00 0.00 0.00 80 1014.4
20260504130230 63 225 3.0 4.0 0.00 0.00 0.00 80 1014.4
20260504120230 59 343 2.0 6.0 0.00 0.00 0.00 87 1013.6
20260504110228 59 155 3.0 5.0 0.00 0.00 0.00 86 1013.9
20260504081730 61 308 3.0 6.0 0.00 0.00 0.00 81 1014.5
20260504081229 61 342 3.0 6.0 0.00 0.00 0.00 81 1014.7
20260504080730 61 7 3.0 7.0 0.00 0.00 0.00 81 1014.6
20260504080230 62 228 2.0 7.0 0.00 0.00 0.00 80 1014.7
20260504070229 63 231 4.0 10.0 0.00 0.00 0.00 76 1015.9
20260504060229 64 218 3.0 6.0 0.00 0.00 0.00 74 1016.5
20260504050720 65 214 4.0 13.0 0.00 0.00 0.00 70 1016.8
20260504050214 65 230 4.0 13.0 0.00 0.00 0.00 70 1016.7
20260504045712 65 228 4.0 12.0 0.00 0.00 0.00 69 1016.6
20260504045500 66 226 4.0 11.0 0.00 0.00 0.00 69 1016.6
20260504044959 66 52 4.0 11.0 0.00 0.00 0.00 69 1016.7
20260504044211 66 226 4.0 10.0 0.00 0.00 0.00 68 1016.9
20260504043711 66 63 4.0 8.0 0.00 0.00 0.00 68 1016.8
20260504043212 66 55 3.0 8.0 0.00 0.00 0.00 68 1016.8
20260504042712 66 51 3.0 5.0 0.00 0.00 0.00 67 1016.8
20260504042212 67 50 3.0 5.0 0.00 0.00 0.00 67 1016.8
20260504041712 67 46 3.0 7.0 0.00 0.00 0.00 66 1016.9
20260504041208 66 217 3.0 7.0 0.00 0.00 0.00 66 1016.9
20260504040708 67 104 3.0 6.0 0.00 0.00 0.00 65 1016.9
20260504040202 67 190 3.0 6.0 0.00 0.00 0.00 64 1016.9
20260504035950 67 86 3.0 7.0 0.00 0.00 0.00 63 1017.0
20260504035448 67 84 3.0 7.0 0.00 0.00 0.00 62 1017.0
20260504034702 67 222 3.0 6.0 0.00 0.00 0.00 61 1016.9
20260504034201 67 181 2.0 4.0 0.00 0.00 0.00 61 1016.8
20260504033704 67 82 2.0 4.0 0.00 0.00 0.00 61 1016.8
20260504033433 67 189 2.0 4.0 0.00 0.00 0.00 61 1016.7
20260504032700 67 194 2.0 4.0 0.00 0.00 0.00 61 1016.7
20260504032201 67 225 2.0 5.0 0.00 0.00 0.00 61 1016.8
20260504031936 67 224 2.0 5.0 0.00 0.00 0.00 60 1016.8
20260504031201 67 70 2.0 4.0 0.00 0.00 0.00 60 1016.8
20260504030701 67 58 2.0 4.0 0.00 0.00 0.00 60 1016.7
20260504030201 67 220 2.0 4.0 0.00 0.00 0.00 60 1016.8
20260504025701 67 223 2.0 4.0 0.00 0.00 0.00 60 1016.7
20260504025201 67 42 2.0 4.0 0.00 0.00 0.00 60 1016.7
20260504024701 67 70 2.0 8.0 0.00 0.00 0.00 60 1016.8
20260504024151 67 227 2.0 8.0 0.00 0.00 0.00 60 1016.8
20260504023910 67 201 2.0 3.0 0.00 0.00 0.00 60 1016.7
20260504023145 67 206 2.0 5.0 0.00 0.00 0.00 60 1016.6
20260504022645 67 215 2.0 5.0 0.00 0.00 0.00 61 1016.7
20260504022146 67 221 2.0 4.0 0.00 0.00 0.00 63 1016.7
20260504021646 67 220 2.0 3.0 0.00 0.00 0.00 62 1016.7
20260504021145 68 34 2.0 4.0 0.00 0.00 0.00 61 1016.6
20260504020646 68 238 2.0 4.0 0.00 0.00 0.00 60 1016.5
20260504020146 68 190 2.0 3.0 0.00 0.00 0.00 59 1016.5
20260504015646 69 350 1.0 3.0 0.00 0.00 0.00 58 1016.3
20260504015146 69 2 1.0 3.0 0.00 0.00 0.00 57 1016.2
20260504014646 69 245 1.0 2.0 0.00 0.00 0.00 57 1016.2
20260504014145 69 219 0.0 2.0 0.00 0.00 0.00 57 1016.1
20260504013646 70 3 1.0 2.0 0.00 0.00 0.00 55 1016.2
20260504013146 70 0 0.0 2.0 0.00 0.00 0.00 54 1016.1
20260504012646 71 343 1.0 2.0 0.00 0.00 0.00 54 1016.1
20260504012130 72 219 1.0 2.0 0.00 0.00 0.00 53 1016.2
20260504011631 72 111 1.0 3.0 0.00 0.00 0.00 51 1016.2
20260504011131 73 258 1.0 3.0 0.00 0.00 0.00 49 1016.2
20260504010629 73 250 1.0 3.0 0.00 0.00 0.00 49 1016.1
20260504010129 73 276 1.0 4.0 0.00 0.00 0.00 48 1016.1
20260504005629 74 171 1.0 4.0 0.00 0.00 0.00 48 1016.0
20260504005128 74 217 1.0 4.0 0.00 0.00 0.00 47 1016.0
20260504004630 74 309 1.0 4.0 0.00 0.00 0.00 47 1016.0
20260504004129 74 130 1.0 4.0 0.00 0.00 0.00 47 1016.0
20260504003628 75 167 2.0 5.0 0.00 0.00 0.00 47 1016.1
20260504003127 75 171 2.0 5.0 0.00 0.00 0.00 46 1016.1
20260504002626 75 246 2.0 4.0 0.00 0.00 0.00 45 1016.1
20260504002122 75 241 2.0 6.0 0.00 0.00 0.00 45 1016.2
20260504001909 75 214 2.0 6.0 0.00 0.00 0.00 45 1016.2
20260504001123 76 274 2.0 6.0 0.00 0.00 0.00 44 1016.3
20260504000908 76 124 2.0 6.0 0.00 0.00 0.00 43 1016.4
20260504000123 76 280 2.0 8.0 0.00 0.00 0.00 43 1016.5
20260503235623 76 124 2.0 8.0 0.00 0.00 0.00 42 1016.5
20260503235124 77 293 2.0 5.0 0.00 0.00 0.00 42 1016.5